[[{"header":{"parameterUnit":"m.s-1","parameterCategory":1,"la1":30.2991,"la2":30.254,"lo1":-89.0895,"lo2":-89.0444,"dy":0.0017,"dx":0.0017,"nx":28,"ny":28,"refTime":"2024-10-21T03:00:00:Z","depth":0,"parameterNumber":2,"parameterNumberName":"U-component_of_WINDS"},"data":[0,0,0,0,0,0,0,0,0,0,0,0,0,0,0,0,0,0,0,0,0,0,0,0,0,0,0,0,0,0,0,0,0,0,0,0,0,0,0,0,0,0,0,0,0,0,0,0,0,0,0,0,0,0,0,0,0,0,-3.1191,-3.1191,0,-3.1229,-3.123,-3.123,-3.1155,-3.1152,-3.115,-3.1147,-3.1188,-3.1192,-3.1195,0,0,0,0,0,0,0,0,0,0,0,0,0,-3.1053,-3.1056,-3.1191,-3.1191,-3.1192,-3.1229,-3.123,-3.123,-3.1155,-3.1152,-3.1149,-3.1146,-3.1187,-3.1191,-3.1195,0,0,0,0,0,0,0,0,0,0,0,0,0,-3.1105,-3.1057,-3.1191,-3.1159,-3.1156,-3.1229,-3.123,-3.1231,-3.1156,-3.1152,-3.1148,-3.1145,-3.1186,-3.1191,-3.1196,-3.1302,0,0,-3.1211,-3.1214,0,0,0,0,0,0,0,0,-3.1102,-3.111,-3.1163,-3.1161,-3.1158,-3.1183,-3.1196,-3.1255,-3.1157,-3.1156,-3.1147,-3.1143,-3.119,-3.1194,-3.121,-3.1304,-3.1306,-3.1212,-3.1215,-3.1217,-3.1219,0,0,0,0,0,0,0,-3.1099,-3.1108,-3.1206,-3.1164,-3.1161,-3.1143,-3.1146,-3.1207,-3.1193,-3.1156,-3.115,-3.1156,-3.1188,-3.1205,-3.121,-3.1306,-3.1212,-3.1216,-3.1219,-3.1221,-3.1492,-3.1495,0,0,0,0,0,0,-3.1099,-3.1105,-3.1205,-3.1207,-3.112,-3.1148,-3.1152,-3.1179,-3.1193,-3.1191,-3.1159,-3.1152,-3.1198,-3.1204,-3.1211,-3.1338,-3.1217,-3.1222,-3.1225,-3.1487,-3.1492,-3.1497,0,0,0,0,0,0,-3.1096,-3.1108,-3.1203,-3.1155,-3.1166,-3.1155,-3.1186,-3.1182,-3.1199,-3.1195,-3.1192,-3.1179,-3.1195,-3.1204,-3.128,-3.1339,-3.1224,-3.1229,-3.1483,-3.1489,-3.1495,-3.1592,0,0,0,0,0,0,-3.1093,-3.1108,-3.1148,-3.1156,-3.1168,-3.1272,-3.1189,-3.1185,-3.1208,-3.1199,-3.1213,-3.1212,-3.1193,-3.1273,-3.1286,-3.1344,-3.1233,-3.1477,-3.1485,-3.1493,-3.1584,-3.1601,-3.1616,0,0,0,0,0,-3.1088,-3.1174,-3.115,-3.1163,-3.1218,-3.1275,-3.1282,-3.1258,-3.1213,-3.1253,-3.1251,-3.1211,-3.133,-3.1282,-3.1295,-3.1355,-3.1474,-3.1483,-3.1492,-3.1577,-3.1598,-3.1615,0,0,0,0,0,0,-3.1172,-3.1174,-3.1148,-3.1239,-3.1258,-3.1262,-3.1313,-3.1281,-3.1313,-3.1304,-3.1273,-3.1277,-3.136,-3.1365,-3.1311,-3.146,-3.1394,-3.1407,-3.1454,-3.1474,-3.1489,-3.1488,-3.1237,0,0,0,0,0,-3.1202,-3.1247,-3.1246,-3.1327,-3.1337,-3.1324,-3.1347,-3.1328,-3.1346,-3.1353,-3.1356,-3.1376,-3.1417,-3.1445,-3.1483,-3.1583,-3.1587,-3.1632,-3.1648,-3.1661,-3.1673,-3.1728,-3.1749,-3.1527,-3.1527,-3.1527,0,0,-3.1263,-3.1269,-3.13,-3.1344,-3.1356,-3.1405,-3.1331,-3.1385,-3.1421,-3.1361,-3.1434,-3.1437,-3.1457,-3.1546,-3.1586,-3.1553,-3.1734,-3.1672,-3.1683,-3.1688,-3.1739,-3.176,-3.1779,-3.1534,-3.1532,-3.1531,0,0,-3.1399,-3.1408,-3.1477,-3.149,-3.1509,-3.15,-3.1516,-3.1526,-3.1526,-3.1598,-3.1554,-3.1597,-3.1669,-3.1685,-3.1703,-3.1847,-3.1812,-3.186,-3.1944,-3.1998,-3.2016,-3.2031,-3.2084,-3.2103,-3.1871,-3.1871,-3.1871,0,-3.1473,-3.1544,-3.1516,-3.1574,-3.1596,-3.1543,-3.1614,-3.1628,-3.1659,-3.1675,-3.1637,-3.1727,-3.1737,-3.183,-3.1865,-3.1881,-3.19,-3.1859,-3.2015,-3.203,-3.2044,-3.2095,-3.2115,-3.1877,-3.1876,-3.1876,-3.1875,0,-3.1635,-3.1686,-3.1739,-3.177,-3.1797,-3.1861,-3.1843,-3.1874,-3.1852,-3.1847,-3.1922,-3.1931,-3.1971,-3.1991,-3.197,-3.2082,-3.2061,-3.202,-3.1954,-3.2072,-3.2119,-3.2138,-3.1885,-3.1883,-3.1881,-3.188,0,0,-3.1827,-3.1842,-3.1863,-3.1877,-3.1894,-3.1933,-3.1994,-3.2033,-3.2061,-3.2084,-3.2136,-3.2198,-3.216,-3.2181,-3.2161,-3.2208,-3.2324,-3.2161,-3.2161,-3.2193,-3.2451,-3.2484,-3.2506,-3.23,-3.2304,-3.2306,-3.245,0,-3.1965,-3.2071,-3.2048,-3.2153,-3.22,-3.2151,-3.2205,-3.2222,-3.2218,-3.2258,-3.2254,-3.23,-3.2245,-3.2258,-3.2302,-3.23,-3.2376,-3.2289,-3.235,-3.2353,-3.2349,-3.253,-3.2565,-3.27,-3.2468,-3.2471,-3.2473,0,-3.2139,-3.2169,-3.2279,-3.229,-3.2309,-3.2358,-3.2392,-3.243,-3.2449,-3.2443,-3.2466,-3.2437,-3.25,-3.2431,-3.2518,-3.246,-3.2483,-3.2486,-3.2491,-3.2497,-3.2422,-3.2544,-3.2742,-3.2764,-3.2501,-3.2499,-3.2497,0,-3.2272,-3.2339,-3.2414,-3.2427,-3.2441,-3.2477,-3.2485,-3.2499,-3.2524,-3.2554,-3.257,-3.2607,-3.2628,-3.2657,-3.264,-3.2591,-3.273,-3.266,-3.2729,-3.273,-3.2762,-3.2761,-3.2969,-3.2773,-3.2773,-3.2773,-3.2772,0,-3.2429,-3.2499,-3.2474,-3.252,-3.2598,-3.257,-3.2647,-3.2649,-3.2662,-3.2709,-3.2668,-3.2713,-3.2685,-3.2728,-3.2714,-3.2789,-3.2798,-3.2797,-3.2793,-3.2802,-3.2803,-3.2818,-3.281,-3.2778,-3.2777,-3.2776,-3.2775,0,-3.259,-3.2576,-3.2655,-3.2662,-3.2665,-3.2722,-3.2728,-3.2772,-3.2765,-3.2825,-3.2837,-3.2827,-3.2875,-3.286,-3.2911,-3.2902,-3.2998,-3.2981,-3.2993,-3.2989,-3.306,-3.3055,-3.3288,-3.3318,-3.3101,-3.3103,-3.3104,0,-3.2693,-3.2746,-3.2758,-3.2786,-3.2797,-3.2843,-3.2868,-3.2843,-3.2871,-3.2897,-3.2938,-3.2983,-3.3017,-3.3097,-3.3095,-3.3135,-3.312,-3.3198,-3.3125,-3.3134,-3.3124,-3.3122,-3.3128,-3.3214,-3.3216,-3.3218,-3.322,0,-3.2877,-3.2868,-3.2906,-3.2943,-3.2974,-3.3002,-3.3026,-3.3051,-3.3027,-3.3062,-3.3111,-3.3138,-3.3191,-3.3236,-3.3273,-3.3281,-3.3248,-3.3243,-3.3261,-3.3273,-3.3278,-3.3279,-3.3035,-3.3238,-3.3236,-3.3235,-3.3234,-3.3233,-3.3014,-3.3059,-3.3076,-3.312,-3.3135,-3.3159,-3.3201,-3.3199,-3.3239,-3.3281,-3.3263,-3.332,-3.3338,-3.3383,-3.3397,-3.3441,-3.3411,-3.3438,-3.3445,-3.3452,-3.3463,-3.3269,-3.3448,-3.3447,-3.3447,-3.3446,-3.3446,0,-3.3198,-3.3206,-3.3247,-3.3282,-3.3318,-3.3282,-3.3307,-3.3339,-3.339,-3.3409,-3.3444,-3.3501,-3.3545,-3.3546,-3.3588,-3.3624,-3.361,-3.3636,-3.3634,-3.3637,-3.3486,-3.3467,-3.3646,-3.3646,-3.3646,-3.3646,-3.3646,-3.3646,-3.3299,-3.3374,-3.3367,-3.345,-3.3457,-3.3513,-3.353,-3.3552,-3.3567,-3.3633,-3.367,-3.367,-3.3682,-3.3724,-3.3764,-3.3763,-3.3781,-3.3814,-3.3808,-3.3667,-3.3647,-3.3628,-3.3611,-3.3817,-3.3817,-3.3955,-3.3956,-3.3957]},{"header":{"parameterUnit":"m.s-1","parameterCategory":1,"la1":30.2991,"la2":30.254,"lo1":-89.0895,"lo2":-89.0444,"dy":0.0017,"dx":0.0017,"nx":28,"ny":28,"refTime":"2024-10-21T03:00:00:Z","depth":0,"parameterNumber":3,"parameterNumberName":"V-component_of_WINDS"},"data":[0,0,0,0,0,0,0,0,0,0,0,0,0,0,0,0,0,0,0,0,0,0,0,0,0,0,0,0,0,0,0,0,0,0,0,0,0,0,0,0,0,0,0,0,0,0,0,0,0,0,0,0,0,0,0,0,0,0,-2.2405,-2.2405,0,-2.24,-2.24,-2.24,-2.2357,-2.2356,-2.2355,-2.2354,-2.2349,-2.235,-2.2351,0,0,0,0,0,0,0,0,0,0,0,0,0,-2.2377,-2.2378,-2.2405,-2.2405,-2.2405,-2.24,-2.24,-2.24,-2.2357,-2.2356,-2.2355,-2.2353,-2.2349,-2.235,-2.2351,0,0,0,0,0,0,0,0,0,0,0,0,0,-2.2382,-2.2378,-2.2405,-2.2383,-2.2381,-2.24,-2.24,-2.24,-2.2358,-2.2356,-2.2354,-2.2353,-2.2349,-2.235,-2.2351,-2.2391,0,0,-2.2355,-2.2356,0,0,0,0,0,0,0,0,-2.2382,-2.2383,-2.2386,-2.2384,-2.2382,-2.2377,-2.2388,-2.2397,-2.2358,-2.2366,-2.2354,-2.2352,-2.236,-2.236,-2.2363,-2.2391,-2.239,-2.2355,-2.2356,-2.2357,-2.2357,0,0,0,0,0,0,0,-2.2382,-2.2383,-2.2403,-2.2386,-2.2384,-2.2373,-2.2372,-2.239,-2.2372,-2.2366,-2.2362,-2.2362,-2.2359,-2.2362,-2.2362,-2.239,-2.2355,-2.2356,-2.2357,-2.2358,-2.2449,-2.2451,0,0,0,0,0,0,-2.2384,-2.2383,-2.2403,-2.2403,-2.2378,-2.2375,-2.2374,-2.2381,-2.2372,-2.2369,-2.2364,-2.236,-2.236,-2.2361,-2.2362,-2.2407,-2.2357,-2.2358,-2.2359,-2.2448,-2.245,-2.2452,0,0,0,0,0,0,-2.2384,-2.2386,-2.2403,-2.2392,-2.2393,-2.2377,-2.2385,-2.2381,-2.2384,-2.237,-2.2367,-2.237,-2.2359,-2.236,-2.2384,-2.2407,-2.2358,-2.236,-2.2446,-2.2448,-2.2451,-2.2499,0,0,0,0,0,0,-2.2383,-2.2387,-2.2402,-2.2393,-2.2394,-2.2425,-2.2386,-2.2382,-2.2387,-2.2382,-2.2376,-2.2373,-2.2358,-2.2382,-2.2385,-2.2407,-2.2361,-2.2444,-2.2447,-2.245,-2.2495,-2.2502,-2.2509,0,0,0,0,0,-2.2382,-2.2416,-2.2403,-2.2405,-2.2413,-2.2427,-2.2427,-2.2409,-2.2389,-2.2403,-2.2394,-2.2373,-2.2404,-2.2385,-2.2388,-2.2411,-2.2442,-2.2446,-2.245,-2.2492,-2.2501,-2.2509,0,0,0,0,0,0,-2.2428,-2.2414,-2.24,-2.2431,-2.243,-2.2419,-2.2438,-2.242,-2.2425,-2.2421,-2.2398,-2.2397,-2.2424,-2.242,-2.2399,-2.2448,-2.2419,-2.2424,-2.245,-2.2459,-2.2465,-2.2466,-2.2362,0,0,0,0,0,-2.2442,-2.2455,-2.2441,-2.247,-2.2471,-2.2454,-2.246,-2.2446,-2.2444,-2.2444,-2.2436,-2.2436,-2.2445,-2.2451,-2.2459,-2.2494,-2.2492,-2.2511,-2.2518,-2.2524,-2.2528,-2.2545,-2.2554,-2.2464,-2.2464,-2.2464,0,0,-2.2471,-2.2464,-2.2474,-2.2479,-2.2477,-2.249,-2.2454,-2.247,-2.248,-2.2446,-2.2468,-2.2462,-2.246,-2.2489,-2.2501,-2.2486,-2.2552,-2.2529,-2.2533,-2.2534,-2.255,-2.2559,-2.2566,-2.2466,-2.2466,-2.2466,0,0,-2.253,-2.2526,-2.255,-2.2548,-2.2545,-2.2533,-2.2539,-2.2531,-2.2526,-2.2547,-2.2521,-2.2532,-2.2549,-2.2548,-2.255,-2.2607,-2.2588,-2.261,-2.2647,-2.2664,-2.2671,-2.2677,-2.2697,-2.2705,-2.2614,-2.2615,-2.2615,0,-2.2566,-2.2585,-2.2564,-2.2581,-2.2584,-2.2553,-2.2577,-2.2576,-2.2576,-2.2578,-2.2561,-2.2581,-2.2577,-2.2605,-2.2619,-2.2622,-2.2627,-2.2611,-2.2672,-2.2678,-2.2683,-2.2702,-2.2709,-2.2617,-2.2617,-2.2617,-2.2616,0,-2.2629,-2.2642,-2.2661,-2.2661,-2.2666,-2.2686,-2.2668,-2.2676,-2.2661,-2.2652,-2.2673,-2.2667,-2.2673,-2.2679,-2.2665,-2.2705,-2.2695,-2.2676,-2.2646,-2.2695,-2.2712,-2.2719,-2.2621,-2.262,-2.2619,-2.2619,0,0,-2.2717,-2.2704,-2.2712,-2.2711,-2.2705,-2.2715,-2.2733,-2.2738,-2.2745,-2.2745,-2.276,-2.2774,-2.2755,-2.2757,-2.2743,-2.2758,-2.2803,-2.2736,-2.2735,-2.2748,-2.2846,-2.2861,-2.287,-2.279,-2.2791,-2.2792,-2.2846,0,-2.2773,-2.2804,-2.2785,-2.2819,-2.283,-2.2801,-2.2817,-2.2815,-2.2806,-2.2815,-2.2805,-2.2815,-2.279,-2.2791,-2.2804,-2.2795,-2.2822,-2.2791,-2.2803,-2.2804,-2.2805,-2.2879,-2.2895,-2.2946,-2.2853,-2.2854,-2.2855,0,-2.2843,-2.2846,-2.2881,-2.2871,-2.2875,-2.289,-2.2893,-2.2901,-2.2898,-2.289,-2.2892,-2.2874,-2.2891,-2.2861,-2.2884,-2.2863,-2.2867,-2.2863,-2.2864,-2.2865,-2.2832,-2.2881,-2.2962,-2.297,-2.2865,-2.2864,-2.2864,0,-2.2904,-2.2916,-2.2938,-2.2938,-2.2928,-2.2939,-2.2935,-2.293,-2.2934,-2.2936,-2.2939,-2.2943,-2.2946,-2.295,-2.2933,-2.2913,-2.2958,-2.2927,-2.2952,-2.2953,-2.2963,-2.2963,-2.3046,-2.2966,-2.2966,-2.2966,-2.2966,0,-2.2969,-2.2991,-2.2965,-2.2979,-2.3002,-2.298,-2.3004,-2.2997,-2.2993,-2.3004,-2.298,-2.2991,-2.2968,-2.2977,-2.2964,-2.2984,-2.2986,-2.298,-2.2977,-2.2982,-2.2983,-2.2985,-2.2981,-2.2968,-2.2967,-2.2967,-2.2967,0,-2.3041,-2.3024,-2.3046,-2.3034,-2.3031,-2.3049,-2.3039,-2.3051,-2.304,-2.3055,-2.3057,-2.304,-2.3049,-2.3032,-2.304,-2.3031,-2.306,-2.3051,-2.3061,-2.3058,-2.3084,-2.3082,-2.3171,-2.3181,-2.3095,-2.3096,-2.3097,0,-2.3083,-2.3099,-2.3088,-2.3094,-2.3091,-2.3101,-2.3104,-2.3083,-2.3088,-2.3085,-2.3097,-2.3104,-2.3108,-2.3124,-2.3113,-2.3118,-2.3109,-2.3139,-2.3109,-2.3114,-2.3109,-2.3108,-2.3109,-2.3146,-2.3147,-2.3148,-2.3148,0,-2.316,-2.3151,-2.3157,-2.316,-2.3165,-2.3166,-2.3166,-2.3172,-2.3149,-2.3156,-2.3165,-2.3168,-2.3175,-2.3182,-2.3184,-2.318,-2.3161,-2.3158,-2.3164,-2.317,-2.3175,-2.3172,-2.3078,-2.3156,-2.3155,-2.3155,-2.3154,-2.3154,-2.3218,-2.3231,-2.3225,-2.3232,-2.3229,-2.3229,-2.3239,-2.3229,-2.3236,-2.324,-2.3227,-2.3238,-2.3234,-2.3235,-2.3233,-2.3241,-2.3228,-2.3237,-2.3239,-2.3241,-2.3245,-2.3174,-2.3242,-2.3242,-2.3241,-2.3241,-2.3241,0,-2.3293,-2.3287,-2.3294,-2.3294,-2.33,-2.328,-2.3279,-2.3285,-2.3295,-2.3292,-2.3297,-2.3306,-2.3313,-2.3301,-2.3306,-2.3315,-2.3306,-2.3317,-2.3316,-2.3316,-2.3257,-2.3252,-2.3324,-2.3324,-2.3324,-2.3324,-2.3324,-2.3324,-2.3333,-2.3353,-2.3343,-2.3361,-2.3355,-2.3366,-2.3367,-2.3366,-2.3364,-2.3376,-2.3381,-2.3373,-2.3366,-2.337,-2.3375,-2.3372,-2.3375,-2.3389,-2.3382,-2.3328,-2.332,-2.3312,-2.3306,-2.3389,-2.339,-2.3439,-2.344,-2.344]}]]